Weather History for Bishop, CA

Change the Weather History Date:

Tuesday, February 5, 2013

  Actual Average Record
Temperature  
Mean Temperature 45 °F 40 °F  
Max Temperature 65 °F 56 °F 74 °F (1954)
Min Temperature 25 °F 25 °F 9 °F (1985)
Degree Days  
Heating Degree Days 20 25  
Month to date heating degree days 101 125  
Since 1 July heating degree days 2643 2694  
Cooling Degree Days 0 0  
Month to date cooling degree days 0 0  
Year to date cooling degree days 0 0  
Moisture  
Dew Point 13 °F    
Average Humidity 34    
Maximum Humidity 55    
Minimum Humidity 13    
Precipitation  
Precipitation 0.00 in 0.03 in 0.48 in (1978)
Month to date precipitation 0.00 0.14  
Year to date precipitation T 1.19  
Snow  
Snow 0.00 in 0.00 in 5.50 in (1976)
Month to date snowfall 0.0 0.0  
Since 1 July snowfall 2.8 5.8  
Snow Depth 0.00 in    
Sea Level Pressure  
Sea Level Pressure 29.95 in    
Wind  
Wind Speed 6 mph (NW)    
Max Wind Speed 13 mph    
Max Gust Speed 16 mph    
Visibility 10 miles    
Events      
T = Trace of Precipitation, MM = Missing Value Source: NWS Daily Summary

Daily Weather History Graph

Daily Weather History Graph

Search for Another Location

Airport:

Trip Planner

Search our weather history database for the weather conditions in past years. The results will help you decide how hot, cold, wet, or windy it might be!

Date:

Astronomy

Feb. 05, 2013 Rise Set
Actual Time 6:52 AM PST 5:22 PM PST
Civil Twilight 6:25 AM PST 5:49 PM PST
Nautical Twilight 5:54 AM PST 6:20 PM PST
Astronomical Twilight 5:24 AM PST 6:51 PM PST
Moon 2:37 AM PST (2/5) 12:47 PM PST (2/5)
Length of Visible Light 11h 24m
Length of Day
10h 29m
Waning Crescent, 25% of the Moon is Illuminated
Feb 5
Waning Crescent
Feb 9
New
Feb 17
First Quarter
Feb 25
Full
Mar 4
Last Quarter

Hourly Weather History & Observations

Time (PST) Temp. Windchill Dew Point Humidity Pressure Visibility Wind Dir Wind Speed Gust Speed Precip Events Conditions
12:56 AM 30.0 °F 24.1 °F 10.9 °F 45% 30.04 in 10.0 mi NW 5.8 mph - N/A   Clear
1:56 AM 30.9 °F 23.5 °F 12.0 °F 46% 30.02 in 10.0 mi WNW 8.1 mph - N/A   Clear
2:56 AM 25.0 °F 17.1 °F 10.9 °F 55% 30.02 in 10.0 mi NNW 6.9 mph - N/A   Clear
3:56 AM 28.9 °F 21.9 °F 12.0 °F 49% 30.01 in 10.0 mi NNW 6.9 mph - N/A   Clear
4:56 AM 28.0 °F 20.0 °F 12.9 °F 53% 30.02 in 10.0 mi NW 8.1 mph - N/A   Clear
5:56 AM 28.9 °F 21.9 °F 12.9 °F 51% 30.04 in 10.0 mi NW 6.9 mph - N/A   Clear
6:56 AM 28.9 °F - 12.9 °F 51% 30.05 in 10.0 mi Calm Calm - N/A   Clear
7:56 AM 35.1 °F 32.2 °F 14.0 °F 42% 30.06 in 10.0 mi North 3.5 mph - N/A   Clear
8:56 AM 41.0 °F 38.0 °F 16.0 °F 36% 30.06 in 10.0 mi NW 4.6 mph - N/A   Clear
9:56 AM 52.0 °F - 15.1 °F 23% 30.04 in 10.0 mi Calm Calm - N/A   Clear
10:56 AM 55.9 °F - 14.0 °F 19% 30.00 in 10.0 mi Calm Calm - N/A   Clear
11:56 AM 57.9 °F - 14.0 °F 18% 29.95 in 10.0 mi South 4.6 mph - N/A   Clear
12:56 PM 61.0 °F - 14.0 °F 16% 29.89 in 10.0 mi Variable 5.8 mph - N/A   Clear
1:56 PM 63.0 °F - 12.9 °F 14% 29.85 in 10.0 mi SSE 10.4 mph - N/A   Clear
2:56 PM 64.9 °F - 14.0 °F 14% 29.84 in 10.0 mi Variable 5.8 mph - N/A   Clear
3:56 PM 63.0 °F - 14.0 °F 15% 29.83 in 10.0 mi SSE 9.2 mph - N/A   Clear
4:56 PM 59.0 °F - 15.1 °F 18% 29.84 in 10.0 mi South 6.9 mph - N/A   Clear
5:56 PM 53.6 °F - 15.8 °F 22% 29.88 in 10.0 mi South 3.5 mph - N/A   Clear
6:56 PM 46.0 °F 41.9 °F 12.9 °F 26% 29.89 in 10.0 mi North 8.1 mph - N/A   Clear
7:56 PM 43.0 °F 38.8 °F 12.0 °F 28% 29.90 in 10.0 mi WNW 6.9 mph - N/A   Clear
8:56 PM 42.1 °F 35.7 °F 10.9 °F 28% 29.89 in 10.0 mi NNW 11.5 mph - N/A   Clear
9:56 PM 37.9 °F 30.9 °F 12.0 °F 35% 29.89 in 10.0 mi WNW 10.4 mph - N/A   Clear
10:56 PM 37.0 °F 34.5 °F 10.9 °F 34% 29.88 in 10.0 mi NW 3.5 mph - N/A   Clear
11:56 PM 33.8 °F 25.8 °F 8.6 °F 35% 29.95 in 10.0 mi NNW 10.4 mph - N/A   Clear